Total_Precipitation_Accumulation
0.00 0.00 0.00 0.01 0.01 0.01 0.03 0.10 0.18 0.25 0.32 0.30 0.30 0.38 0.44 0.44 0.73 1.41 0.88 0.46 0.31 0.17 0.13 0.10 0.10 0.09 0.09 0.08 0.11 0.12 0.12 0.12 0.11 0.10 0.08 0.09 0.09 0.09 0.09 0.09 0.10 0.14 0.17 0.16 0.15 0.14 0.13 0.12 0.10
0.00 0.00 0.00 0.01 0.01 0.02 0.04 0.09 0.20 0.29 0.32 0.26 0.28 0.32 0.37 0.45 0.44 0.44 0.43 0.35 0.27 0.19 0.17 0.13 0.11 0.11 0.09 0.09 0.11 0.13 0.13 0.11 0.10 0.09 0.09 0.09 0.09 0.09 0.10 0.11 0.13 0.18 0.21 0.20 0.16 0.13 0.10 0.09 0.09
0.00 0.00 0.01 0.00 0.01 0.01 0.07 0.15 0.24 0.29 0.34 0.33 0.41 0.50 0.56 0.52 0.49 0.40 0.33 0.25 0.21 0.18 0.16 0.16 0.14 0.12 0.12 0.11 0.13 0.14 0.14 0.12 0.11 0.11 0.11 0.11 0.11 0.11 0.13 0.17 0.21 0.22 0.23 0.24 0.22 0.16 0.12 0.10 0.09
0.00 0.00 0.00 0.01 0.01 0.01 0.07 0.19 0.29 0.32 0.37 0.38 0.41 0.63 0.69 0.48 0.50 0.40 0.34 0.24 0.19 0.19 0.16 0.15 0.16 0.16 0.16 0.16 0.17 0.18 0.17 0.15 0.15 0.14 0.14 0.14 0.14 0.14 0.18 0.26 0.32 0.30 0.28 0.30 0.29 0.25 0.18 0.12 0.11
0.00 0.00 0.00 0.00 0.01 0.03 0.06 0.15 0.26 0.32 0.38 0.37 0.40 0.66 0.85 0.71 0.56 0.47 0.35 0.22 0.19 0.24 0.24 0.19 0.21 0.23 0.22 0.22 0.21 0.22 0.20 0.22 0.23 0.22 0.20 0.20 0.19 0.21 0.26 0.34 0.37 0.36 0.34 0.35 0.30 0.23 0.16 0.13 0.14
0.00 0.01 0.01 0.00 0.01 0.04 0.07 0.09 0.20 0.33 0.39 0.43 0.46 0.76 1.17 1.13 0.73 0.48 0.41 0.35 0.28 0.27 0.24 0.22 0.24 0.27 0.28 0.28 0.29 0.28 0.28 0.28 0.28 0.27 0.27 0.24 0.24 0.27 0.32 0.36 0.38 0.38 0.34 0.29 0.25 0.22 0.19 0.19 0.19
0.00 0.00 0.01 0.01 0.03 0.07 0.11 0.13 0.20 0.30 0.36 0.42 0.49 0.83 1.15 1.12 0.86 0.65 0.61 0.51 0.40 0.36 0.36 0.36 0.37 0.37 0.40 0.42 0.41 0.38 0.36 0.35 0.32 0.29 0.26 0.23 0.25 0.30 0.34 0.39 0.44 0.42 0.33 0.28 0.26 0.24 0.22 0.21 0.21
0.00 0.00 0.00 0.01 0.03 0.10 0.15 0.18 0.21 0.24 0.42 0.46 0.49 0.82 1.27 1.32 1.06 1.02 1.01 0.88 0.75 0.70 0.71 0.71 0.69 0.62 0.52 0.46 0.44 0.46 0.45 0.41 0.37 0.30 0.26 0.28 0.32 0.38 0.45 0.42 0.44 0.41 0.36 0.32 0.30 0.27 0.23 0.22 0.22
0.00 0.00 0.00 0.01 0.03 0.10 0.17 0.23 0.20 0.23 0.36 0.60 0.59 0.74 1.13 1.29 1.26 1.30 1.31 1.16 1.22 1.24 1.21 1.07 0.95 0.83 0.84 0.75 0.56 0.57 0.55 0.52 0.46 0.43 0.38 0.41 0.53 0.68 0.74 0.61 0.61 0.54 0.48 0.44 0.43 0.39 0.35 0.32 0.29
0.00 0.00 0.01 0.02 0.03 0.08 0.14 0.21 0.18 0.26 0.37 0.69 0.77 0.83 1.06 1.30 1.55 1.60 1.46 1.34 1.43 1.59 1.43 1.24 1.24 1.20 1.11 0.98 0.91 0.89 0.76 0.73 0.66 0.76 0.67 0.76 1.07 1.18 1.03 0.99 0.83 0.78 0.71 0.64 0.64 0.60 0.50 0.44 0.47
0.00 0.02 0.03 0.04 0.07 0.12 0.17 0.23 0.25 0.32 0.55 0.84 1.05 1.24 1.27 1.49 1.68 1.78 1.72 1.64 1.72 1.68 1.44 1.40 1.50 1.46 1.49 1.48 1.42 1.27 1.22 1.16 1.03 1.13 1.12 1.20 1.21 1.16 1.19 1.28 1.16 1.07 1.02 1.06 1.07 0.85 0.71 0.74 0.81
0.01 0.03 0.04 0.08 0.13 0.17 0.21 0.27 0.33 0.39 0.63 0.94 1.07 1.39 1.61 1.79 1.82 1.91 2.03 1.96 2.09 2.00 1.73 1.58 1.47 1.57 1.75 1.71 1.67 1.66 1.62 1.61 1.53 1.50 1.36 1.48 1.54 1.57 1.56 1.66 1.66 1.68 1.65 1.62 1.52 1.35 1.19 1.11 1.10
0.02 0.02 0.06 0.11 0.13 0.17 0.22 0.28 0.29 0.35 0.54 0.75 0.94 1.21 1.30 1.53 1.85 2.31 2.34 2.42 2.49 2.44 2.22 1.93 1.86 1.85 1.86 1.92 1.94 1.70 1.76 1.82 1.95 1.93 1.72 1.75 1.77 1.84 2.01 2.03 2.14 2.08 2.22 2.16 1.94 1.67 1.56 1.46 1.25
0.03 0.03 0.05 0.09 0.13 0.21 0.29 0.30 0.27 0.37 0.53 0.64 0.77 0.96 1.24 1.34 1.56 2.06 2.48 2.61 2.61 2.62 2.49 2.28 2.10 2.06 1.95 2.12 2.29 2.16 1.98 2.01 2.03 2.12 2.01 2.02 2.09 2.19 2.28 2.33 2.40 2.28 2.29 2.32 2.20 1.92 1.77 1.67 1.51
0.03 0.06 0.09 0.11 0.11 0.16 0.22 0.35 0.35 0.35 0.50 0.70 0.78 0.89 1.19 1.51 1.67 2.08 2.48 2.70 2.86 2.78 2.55 2.54 2.37 2.47 2.50 2.65 2.67 2.68 2.59 2.56 2.52 2.48 2.49 2.42 2.45 2.54 2.54 2.71 2.73 2.59 2.54 2.51 2.43 2.28 2.03 1.92 1.85
0.05 0.10 0.13 0.14 0.12 0.11 0.16 0.41 0.49 0.44 0.58 0.71 0.85 0.94 1.18 1.50 1.80 2.09 2.34 2.45 2.73 2.73 2.74 2.77 2.63 2.69 2.83 2.78 2.68 2.74 2.93 2.93 2.87 2.82 2.88 2.78 2.80 2.87 3.02 2.97 2.82 2.73 2.67 2.65 2.75 2.60 2.33 2.24 2.27
0.05 0.09 0.13 0.15 0.14 0.15 0.18 0.40 0.50 0.48 0.64 0.77 0.82 0.94 1.05 1.21 1.51 1.92 2.31 2.51 2.63 2.69 2.60 2.70 2.81 2.72 2.86 2.92 2.89 2.92 3.15 3.27 3.30 3.28 3.17 3.11 3.16 3.19 3.34 3.31 3.11 2.89 2.80 2.81 2.66 2.67 2.58 2.61 2.56
0.04 0.04 0.06 0.10 0.13 0.15 0.23 0.40 0.53 0.55 0.73 0.79 0.91 0.89 1.00 1.20 1.52 1.88 2.35 2.60 2.62 2.71 2.69 2.68 2.91 2.87 3.03 3.14 3.02 3.06 3.10 3.21 3.33 3.46 3.50 3.59 3.63 3.62 3.65 3.55 3.39 3.21 3.08 3.01 2.89 2.84 2.81 2.68 2.54
0.03 0.04 0.05 0.07 0.11 0.18 0.29 0.46 0.63 0.69 0.80 0.88 1.00 1.02 1.23 1.29 1.48 1.86 2.30 2.61 2.92 2.87 2.87 2.73 2.78 2.98 3.03 3.15 3.26 3.49 3.46 3.44 3.68 3.91 4.01 4.15 4.20 4.05 4.03 3.93 3.76 3.55 3.33 3.16 3.00 2.86 2.73 2.54 2.40
0.02 0.04 0.10 0.16 0.16 0.26 0.37 0.50 0.69 0.78 0.77 0.93 1.13 1.14 1.46 1.64 1.69 1.92 2.33 2.60 2.83 2.94 2.95 2.96 3.10 3.14 3.24 3.56 4.02 4.43 4.71 4.81 4.83 4.97 4.96 4.83 4.67 4.55 4.41 4.30 4.07 3.80 3.56 3.31 3.09 2.85 2.63 2.44 2.31
0.04 0.06 0.14 0.24 0.24 0.31 0.45 0.76 0.86 0.81 0.83 1.00 1.22 1.26 1.48 1.75 1.94 1.85 1.91 2.08 2.41 2.71 2.90 2.96 3.28 3.62 3.98 4.45 4.93 5.32 5.63 5.75 5.58 5.38 5.26 5.02 4.79 4.60 4.26 4.01 3.94 3.71 3.37 3.15 2.98 2.78 2.59 2.38 2.24
0.04 0.06 0.13 0.19 0.23 0.37 0.43 0.79 0.92 0.91 1.04 1.14 1.24 1.18 1.33 1.42 1.65 1.81 1.80 1.91 2.17 2.44 2.71 2.99 3.28 3.86 4.62 5.25 5.74 6.17 6.30 6.24 6.07 5.79 5.38 4.93 4.56 4.24 3.94 3.65 3.37 3.15 2.89 2.67 2.53 2.45 2.41 2.32 2.18
0.03 0.04 0.09 0.14 0.15 0.27 0.34 0.63 0.92 1.01 1.12 1.22 1.36 1.24 1.22 1.32 1.39 1.49 1.60 1.73 1.99 2.23 2.50 2.85 3.22 3.88 4.56 5.18 5.74 6.14 6.29 6.18 5.89 5.42 4.89 4.37 3.91 3.51 3.19 2.92 2.63 2.40 2.22 2.06 1.91 1.90 2.03 2.12 2.09
0.02 0.05 0.11 0.17 0.21 0.35 0.33 0.52 1.00 1.22 1.33 1.48 1.46 1.51 1.61 1.50 1.38 1.35 1.37 1.44 1.60 1.84 2.14 2.56 3.01 3.51 4.02 4.39 4.91 5.22 5.38 5.33 5.00 4.48 3.86 3.41 3.08 2.76 2.46 2.21 2.00 1.79 1.61 1.51 1.46 1.45 1.50 1.64 1.75
0.03 0.08 0.20 0.30 0.34 0.39 0.31 0.56 1.12 1.37 1.39 1.49 1.51 1.60 1.65 1.54 1.43 1.34 1.31 1.29 1.38 1.58 1.92 2.20 2.46 2.86 3.13 3.44 3.82 4.04 4.04 3.90 3.68 3.42 3.11 2.70 2.33 2.00 1.76 1.54 1.39 1.25 1.17 1.13 1.12 1.14 1.22 1.27 1.34
0.03 0.07 0.26 0.47 0.46 0.46 0.52 0.94 1.41 1.41 1.31 1.31 1.35 1.35 1.37 1.25 1.25 1.29 1.31 1.30 1.38 1.42 1.58 1.77 1.89 2.08 2.22 2.35 2.55 2.59 2.54 2.47 2.42 2.25 2.01 1.77 1.51 1.21 1.07 0.97 0.90 0.85 0.84 0.82 0.83 0.87 0.95 1.01 1.05
0.02 0.07 0.12 0.24 0.31 0.51 0.88 1.36 1.69 1.53 1.46 1.36 1.21 1.06 1.15 1.13 1.12 1.18 1.22 1.26 1.31 1.30 1.29 1.31 1.33 1.37 1.39 1.43 1.54 1.60 1.58 1.55 1.48 1.37 1.23 1.10 0.98 0.84 0.74 0.70 0.68 0.65 0.65 0.65 0.65 0.65 0.66 0.74 0.83
0.04 0.06 0.10 0.22 0.51 0.70 0.97 1.43 1.93 1.98 1.92 1.83 1.52 1.21 1.18 1.19 1.21 1.08 1.00 1.05 1.13 1.11 1.08 1.04 1.06 1.05 1.00 0.94 0.96 0.98 1.02 0.98 0.93 0.89 0.84 0.79 0.72 0.65 0.58 0.51 0.47 0.44 0.44 0.47 0.54 0.54 0.52 0.55 0.60
0.07 0.09 0.13 0.24 0.39 0.70 1.21 1.75 1.80 2.06 2.13 1.95 1.64 1.34 1.31 1.27 1.22 1.17 1.17 1.09 1.09 1.08 1.05 1.00 0.98 0.95 0.91 0.87 0.83 0.77 0.71 0.68 0.64 0.60 0.56 0.53 0.49 0.46 0.42 0.39 0.35 0.33 0.33 0.38 0.46 0.48 0.47 0.50 0.51
0.11 0.12 0.13 0.33 0.41 0.53 1.06 1.86 1.87 2.09 2.16 2.00 1.95 1.74 1.53 1.46 1.34 1.27 1.26 1.15 1.07 1.00 0.98 0.96 0.90 0.82 0.78 0.77 0.73 0.66 0.61 0.57 0.53 0.48 0.44 0.39 0.38 0.38 0.37 0.36 0.34 0.30 0.30 0.35 0.40 0.43 0.42 0.46 0.48